Time,TemperatureF,DewpointF,PressureIn,WindDirection,WindDirectionDegrees,WindSpeedMPH,WindSpeedGustMPH,Humidity,HourlyPrecipIn,Conditions,Clouds,dailyrainin,SolarRadiationWatts/m^2,SoftwareType,DateUTC
2013-01-30 00:04:00,58.0,58.0,29.92,South,191,6.0,17.0,99,0.10,,,0.13,0.000000,,2013-01-30 05:04:00,
2013-01-30 00:10:00,58.0,58.0,29.91,SSW,192,8.0,25.0,99,0.07,,,0.20,0.000000,,2013-01-30 05:10:00,
2013-01-30 00:32:00,58.0,58.0,29.91,SSW,192,8.0,25.0,99,0.07,,,0.20,0.000000,,2013-01-30 05:32:00,
2013-01-30 00:43:00,58.0,58.0,29.91,SSW,192,8.0,25.0,99,0.07,,,0.20,0.000000,,2013-01-30 05:43:00,
2013-01-30 00:52:00,58.0,58.0,29.91,SSW,192,8.0,25.0,99,0.07,,,0.20,0.000000,,2013-01-30 05:52:00,
2013-01-30 01:02:00,58.0,58.0,29.91,SSW,192,8.0,25.0,99,0.07,,,0.20,0.000000,,2013-01-30 06:02:00,
2013-01-30 01:10:00,58.0,58.0,29.89,NNE,26,10.0,28.0,100,0.00,,,0.20,0.000000,,2013-01-30 06:10:00,
2013-01-30 01:42:00,58.0,58.0,29.89,NNE,26,10.0,28.0,100,0.00,,,0.20,0.000000,,2013-01-30 06:42:00,
2013-01-30 01:52:00,58.0,58.0,29.89,NNE,26,10.0,28.0,100,0.00,,,0.20,0.000000,,2013-01-30 06:52:00,
2013-01-30 02:02:00,58.0,58.0,29.89,NNE,26,10.0,28.0,100,0.00,,,0.20,0.000000,,2013-01-30 07:02:00,
2013-01-30 02:10:00,58.0,57.0,29.86,SSW,197,10.0,30.0,98,0.03,,,0.23,0.000000,,2013-01-30 07:10:00,
2013-01-30 02:32:00,58.0,57.0,29.86,SSW,197,10.0,30.0,98,0.03,,,0.23,0.000000,,2013-01-30 07:32:00,
2013-01-30 02:42:00,58.0,57.0,29.86,SSW,197,10.0,30.0,98,0.03,,,0.23,0.000000,,2013-01-30 07:42:00,
2013-01-30 02:52:00,58.0,57.0,29.86,SSW,197,10.0,30.0,98,0.03,,,0.23,0.000000,,2013-01-30 07:52:00,
2013-01-30 03:02:00,58.0,57.0,29.86,SSW,197,10.0,30.0,98,0.03,,,0.23,0.000000,,2013-01-30 08:02:00,
2013-01-30 03:10:00,58.0,55.0,29.83,SSW,199,11.0,37.0,89,0.01,,,0.24,0.000000,,2013-01-30 08:10:00,
2013-01-30 03:32:00,58.0,55.0,29.83,SSW,199,11.0,37.0,89,0.01,,,0.24,0.000000,,2013-01-30 08:32:00,
2013-01-30 03:42:00,58.0,55.0,29.83,SSW,199,11.0,37.0,89,0.01,,,0.24,0.000000,,2013-01-30 08:42:00,
2013-01-30 03:52:00,58.0,55.0,29.83,SSW,199,11.0,37.0,89,0.01,,,0.24,0.000000,,2013-01-30 08:52:00,
2013-01-30 04:02:00,58.0,55.0,29.83,SSW,199,11.0,37.0,89,0.01,,,0.24,0.000000,,2013-01-30 09:02:00,
2013-01-30 04:10:00,58.0,57.0,29.80,ENE,62,12.0,39.0,96,0.01,,,0.25,0.000000,,2013-01-30 09:10:00,
2013-01-30 04:32:00,58.0,57.0,29.80,ENE,62,12.0,39.0,96,0.01,,,0.25,0.000000,,2013-01-30 09:32:00,
2013-01-30 04:42:00,58.0,57.0,29.80,ENE,62,12.0,39.0,96,0.01,,,0.25,0.000000,,2013-01-30 09:42:00,
2013-01-30 04:52:00,58.0,57.0,29.80,ENE,62,12.0,39.0,96,0.01,,,0.25,0.000000,,2013-01-30 09:52:00,
2013-01-30 05:02:00,58.0,57.0,29.80,ENE,62,12.0,39.0,96,0.01,,,0.25,0.000000,,2013-01-30 10:02:00,
2013-01-30 05:10:00,58.0,57.0,29.78,South,174,14.0,38.0,97,0.03,,,0.28,0.000000,,2013-01-30 10:10:00,
2013-01-30 05:32:00,58.0,57.0,29.78,South,174,14.0,38.0,97,0.03,,,0.28,0.000000,,2013-01-30 10:32:00,
2013-01-30 05:42:00,58.0,57.0,29.78,South,174,14.0,38.0,97,0.03,,,0.28,0.000000,,2013-01-30 10:42:00,
2013-01-30 05:52:00,58.0,57.0,29.78,South,174,14.0,38.0,97,0.03,,,0.28,0.000000,,2013-01-30 10:52:00,
2013-01-30 06:02:00,58.0,57.0,29.78,South,174,14.0,38.0,97,0.03,,,0.28,0.000000,,2013-01-30 11:02:00,
2013-01-30 06:10:00,56.0,55.0,29.75,NW,304,11.0,38.0,98,0.06,,,0.34,0.000000,,2013-01-30 11:10:00,
2013-01-30 06:42:00,56.0,55.0,29.75,NW,304,11.0,38.0,98,0.06,,,0.34,0.000000,,2013-01-30 11:42:00,
2013-01-30 06:52:00,56.0,55.0,29.75,NW,304,11.0,38.0,98,0.06,,,0.34,0.000000,,2013-01-30 11:52:00,
2013-01-30 07:02:00,56.0,55.0,29.75,NW,304,11.0,38.0,98,0.06,,,0.34,0.000000,,2013-01-30 12:02:00,
2013-01-30 07:10:00,58.0,58.0,29.73,WSW,248,12.0,34.0,100,0.09,,,0.43,0.000000,,2013-01-30 12:10:00,
2013-01-30 07:33:00,58.0,58.0,29.73,WSW,248,12.0,34.0,100,0.09,,,0.43,0.000000,,2013-01-30 12:33:00,
2013-01-30 07:43:00,58.0,58.0,29.73,WSW,248,12.0,34.0,100,0.09,,,0.43,0.000000,,2013-01-30 12:43:00,
2013-01-30 08:03:00,58.0,58.0,29.73,WSW,248,12.0,34.0,100,0.09,,,0.43,0.000000,,2013-01-30 13:03:00,
2013-01-30 08:10:00,58.0,58.0,29.72,SSW,195,12.0,38.0,100,0.01,,,0.44,1.000000,,2013-01-30 13:10:00,
2013-01-30 08:43:00,58.0,58.0,29.72,SSW,195,12.0,38.0,100,0.01,,,0.44,1.000000,,2013-01-30 13:43:00,
2013-01-30 08:53:00,58.0,58.0,29.72,SSW,195,12.0,38.0,100,0.01,,,0.44,1.000000,,2013-01-30 13:53:00,
2013-01-30 09:03:00,58.0,58.0,29.72,SSW,195,12.0,38.0,100,0.01,,,0.44,1.000000,,2013-01-30 14:03:00,
2013-01-30 09:10:00,58.0,58.0,29.72,SSW,198,11.0,37.0,100,0.06,,,0.50,9.000000,,2013-01-30 14:10:00,
2013-01-30 09:43:00,58.0,58.0,29.72,SSW,198,11.0,37.0,100,0.06,,,0.50,9.000000,,2013-01-30 14:43:00,
2013-01-30 09:53:00,58.0,58.0,29.72,SSW,198,11.0,37.0,100,0.06,,,0.50,9.000000,,2013-01-30 14:53:00,
2013-01-30 10:03:00,58.0,58.0,29.72,SSW,198,11.0,37.0,100,0.06,,,0.50,9.000000,,2013-01-30 15:03:00,
2013-01-30 10:10:00,57.0,57.0,29.69,SSW,198,10.0,42.0,100,0.07,,,0.57,16.000000,,2013-01-30 15:10:00,
2013-01-30 10:33:00,57.0,57.0,29.69,SSW,198,10.0,42.0,100,0.07,,,0.57,16.000000,,2013-01-30 15:33:00,
2013-01-30 10:43:00,57.0,57.0,29.69,SSW,198,10.0,42.0,100,0.07,,,0.57,16.000000,,2013-01-30 15:43:00,
2013-01-30 10:53:00,57.0,57.0,29.69,SSW,198,10.0,42.0,100,0.07,,,0.57,16.000000,,2013-01-30 15:53:00,
2013-01-30 11:03:00,57.0,57.0,29.69,SSW,198,10.0,42.0,100,0.07,,,0.57,16.000000,,2013-01-30 16:03:00,
2013-01-30 11:10:00,57.0,57.0,29.67,SSW,202,10.0,33.0,100,0.15,,,0.72,27.000000,,2013-01-30 16:10:00,
2013-01-30 11:33:00,57.0,57.0,29.67,SSW,202,10.0,33.0,100,0.15,,,0.72,27.000000,,2013-01-30 16:33:00,
2013-01-30 11:42:00,57.0,57.0,29.67,SSW,202,10.0,33.0,100,0.15,,,0.72,27.000000,,2013-01-30 16:42:00,
2013-01-30 11:52:00,57.0,57.0,29.67,SSW,202,10.0,33.0,100,0.15,,,0.72,27.000000,,2013-01-30 16:52:00,
2013-01-30 12:03:00,57.0,57.0,29.67,SSW,202,10.0,33.0,100,0.15,,,0.72,27.000000,,2013-01-30 17:03:00,
2013-01-30 12:10:00,59.0,59.0,29.63,SE,124,10.0,32.0,100,0.16,,,0.88,51.000000,,2013-01-30 17:10:00,
2013-01-30 12:33:00,59.0,59.0,29.63,SE,124,10.0,32.0,100,0.16,,,0.88,51.000000,,2013-01-30 17:33:00,
2013-01-30 12:43:00,59.0,59.0,29.63,SE,124,10.0,32.0,100,0.16,,,0.88,51.000000,,2013-01-30 17:43:00,
2013-01-30 12:53:00,59.0,59.0,29.63,SE,124,10.0,32.0,100,0.16,,,0.88,51.000000,,2013-01-30 17:53:00,
2013-01-30 13:03:00,59.0,59.0,29.63,SE,124,10.0,32.0,100,0.16,,,0.88,51.000000,,2013-01-30 18:03:00,
2013-01-30 13:10:00,58.0,58.0,29.56,SSW,195,11.0,33.0,100,0.25,,,1.13,39.000000,,2013-01-30 18:10:00,
2013-01-30 13:33:00,58.0,58.0,29.56,SSW,195,11.0,33.0,100,0.25,,,1.13,39.000000,,2013-01-30 18:33:00,
2013-01-30 13:43:00,58.0,58.0,29.56,SSW,195,11.0,33.0,100,0.25,,,1.13,39.000000,,2013-01-30 18:43:00,
2013-01-30 13:53:00,58.0,58.0,29.56,SSW,195,11.0,33.0,100,0.25,,,1.13,39.000000,,2013-01-30 18:53:00,
2013-01-30 14:03:00,58.0,58.0,29.56,SSW,195,11.0,33.0,100,0.25,,,1.13,39.000000,,2013-01-30 19:03:00,
2013-01-30 14:10:00,60.0,60.0,29.53,WSW,258,13.0,35.0,100,0.29,,,1.42,29.000000,,2013-01-30 19:10:00,
2013-01-30 14:43:00,60.0,60.0,29.53,WSW,258,13.0,35.0,100,0.29,,,1.42,29.000000,,2013-01-30 19:43:00,
2013-01-30 14:53:00,60.0,60.0,29.53,WSW,258,13.0,35.0,100,0.29,,,1.42,29.000000,,2013-01-30 19:53:00,
2013-01-30 15:03:00,60.0,60.0,29.53,WSW,258,13.0,35.0,100,0.29,,,1.42,29.000000,,2013-01-30 20:03:00,
2013-01-30 15:10:00,60.0,60.0,29.47,South,185,12.0,45.0,100,0.18,,,1.60,8.000000,,2013-01-30 20:10:00,
2013-01-30 15:33:00,60.0,60.0,29.47,South,185,12.0,45.0,100,0.18,,,1.60,8.000000,,2013-01-30 20:33:00,
2013-01-30 15:42:00,60.0,60.0,29.47,South,185,12.0,45.0,100,0.18,,,1.60,8.000000,,2013-01-30 20:42:00,
2013-01-30 15:53:00,60.0,60.0,29.47,South,185,12.0,45.0,100,0.18,,,1.60,8.000000,,2013-01-30 20:53:00,
2013-01-30 16:04:00,60.0,60.0,29.47,South,185,12.0,45.0,100,0.18,,,1.60,8.000000,,2013-01-30 21:04:00,
2013-01-30 16:10:00,60.0,60.0,29.43,ENE,77,8.0,40.0,100,0.55,,,2.15,6.000000,,2013-01-30 21:10:00,
2013-01-30 16:43:00,60.0,60.0,29.43,ENE,77,8.0,40.0,100,0.55,,,2.15,6.000000,,2013-01-30 21:43:00,
2013-01-30 16:53:00,60.0,60.0,29.43,ENE,77,8.0,40.0,100,0.55,,,2.15,6.000000,,2013-01-30 21:53:00,
2013-01-30 17:03:00,60.0,60.0,29.43,ENE,77,8.0,40.0,100,0.55,,,2.15,6.000000,,2013-01-30 22:03:00,
2013-01-30 17:10:00,58.0,58.0,29.42,NNE,26,5.0,38.0,100,1.34,,,3.49,2.000000,,2013-01-30 22:10:00,
2013-01-30 17:43:00,58.0,58.0,29.42,NNE,26,5.0,38.0,100,1.34,,,3.49,2.000000,,2013-01-30 22:43:00,
2013-01-30 17:53:00,58.0,58.0,29.42,NNE,26,5.0,38.0,100,1.34,,,3.49,2.000000,,2013-01-30 22:53:00,
2013-01-30 18:03:00,58.0,58.0,29.42,NNE,26,5.0,38.0,100,1.34,,,3.49,2.000000,,2013-01-30 23:03:00,
2013-01-30 18:10:00,55.0,55.0,29.40,NNE,30,3.0,16.0,100,0.25,,,3.74,1.000000,,2013-01-30 23:10:00,
2013-01-30 18:33:00,55.0,55.0,29.40,NNE,30,3.0,16.0,100,0.25,,,3.74,1.000000,,2013-01-30 23:33:00,
2013-01-30 18:42:00,55.0,55.0,29.40,NNE,30,3.0,16.0,100,0.25,,,3.74,1.000000,,2013-01-30 23:42:00,
2013-01-30 18:52:00,55.0,55.0,29.40,NNE,30,3.0,16.0,100,0.25,,,3.74,1.000000,,2013-01-30 23:52:00,
2013-01-30 19:02:00,55.0,55.0,29.40,NNE,30,3.0,16.0,100,0.25,,,3.74,1.000000,,2013-01-31 00:02:00,
2013-01-30 19:10:00,54.0,54.0,29.39,West,275,5.0,16.0,99,0.12,,,3.86,0.000000,,2013-01-31 00:10:00,
2013-01-30 19:32:00,54.0,54.0,29.39,West,275,5.0,16.0,99,0.12,,,3.86,0.000000,,2013-01-31 00:32:00,
2013-01-30 19:43:00,54.0,54.0,29.39,West,275,5.0,16.0,99,0.12,,,3.86,0.000000,,2013-01-31 00:43:00,
2013-01-30 19:53:00,54.0,54.0,29.39,West,275,5.0,16.0,99,0.12,,,3.86,0.000000,,2013-01-31 00:53:00,
2013-01-30 20:02:00,54.0,54.0,29.39,West,275,5.0,16.0,99,0.12,,,3.86,0.000000,,2013-01-31 01:02:00,
2013-01-30 21:10:00,44.0,40.0,29.42,SW,230,4.0,26.0,85,-99.99,,,4.00,0.000000,,2013-01-31 02:10:00,
2013-01-30 22:03:00,44.0,40.0,29.42,SW,230,4.0,26.0,85,-99.99,,,4.00,0.000000,,2013-01-31 03:03:00,
2013-01-30 22:10:00,42.0,40.0,29.42,South,190,3.0,14.0,92,0.05,,,4.04,0.000000,,2013-01-31 03:10:00,
2013-01-30 22:32:00,42.0,40.0,29.42,South,190,3.0,14.0,92,0.05,,,4.04,0.000000,,2013-01-31 03:32:00,
2013-01-30 22:42:00,42.0,40.0,29.42,South,190,3.0,14.0,92,0.05,,,4.04,0.000000,,2013-01-31 03:42:00,
2013-01-30 22:52:00,42.0,40.0,29.42,South,190,3.0,14.0,92,0.05,,,4.04,0.000000,,2013-01-31 03:52:00,
2013-01-30 23:02:00,42.0,40.0,29.42,South,190,3.0,14.0,92,0.05,,,4.04,0.000000,,2013-01-31 04:02:00,
2013-01-30 23:10:00,42.0,40.0,29.43,SSW,203,4.0,16.0,94,0.01,,,3.95,0.000000,,2013-01-31 04:10:00,
2013-01-30 23:32:00,42.0,40.0,29.43,SSW,203,4.0,16.0,94,0.01,,,3.95,0.000000,,2013-01-31 04:32:00,
2013-01-30 23:42:00,42.0,40.0,29.43,SSW,203,4.0,16.0,94,0.01,,,3.95,0.000000,,2013-01-31 04:42:00,
2013-01-30 23:52:00,42.0,40.0,29.43,SSW,203,4.0,16.0,94,0.01,,,3.95,0.000000,,2013-01-31 04:52:00,